AirNav   Phillips 66 Aviation Fuel
 
 898 users online  

5R5 R & R Aero Airport
Warsaw, New York, USA

GOING TO WARSAW?


FAA INFORMATION EFFECTIVE 13 SEPTEMBER 2018

Location

FAA Identifier: 5R5
Lat/Long: 42-43-15.0000N / 078-11-05.0000W
42-43.250000N / 078-11.083333W
42.7208333 / -78.1847222
(estimated)
Elevation: 1650 ft. / 503 m
From city: 3 miles WSW of WARSAW, NY
Time zone: UTC -4 (UTC -5 during Standard Time)
Zip code: 14569

Airport Operations

Airport use: Open to the public
Activation date: 07/2014
Control tower: no
ARTCC: CLEVELAND CENTER
FSS: NEW YORK FLIGHT SERVICE STATION
NOTAMs facility: ISP (NOTAM-D service not available)
Attendance: IREG
Wind indicator: yes
Segmented circle: no

Airport Communications

CTAF: 122.9
WX AWOS-3PT at GVQ (19 nm N): 127.525 (585-343-6369)

Nearby radio navigation aids

VOR radial/distance  VOR name  Freq  Var
GEEr260/21.0GENESEO VOR/DME108.2009W
BUFr130/23.8BUFFALO VOR/DME116.4008W
ROCr235/32.8ROCHESTER VOR/DME110.0012W
ELZr357/38.7WELLSVILLE VORTAC111.4009W

Airport Services

Parking: tiedowns

Runway Information

Runway 10/28

Dimensions: 4000 x 140 ft. / 1219 x 43 m
Surface: turf, in good condition
RUNWAY 10  RUNWAY 28
Traffic pattern: leftright
Obstructions: none28 ft. trees, 38 ft. from runway, 78 ft. left of centerline, 1:1 slope to clear
RY 28, +58 FT TREES, 197 FT FM RY END, 109 FT LEFT

Airport Ownership and Management from official FAA records

Ownership: Privately-owned
Owner: REO & RUTH ROOD
4497 LIBERTY ST.
WARSAW, NY 14569
Phone 585-786-8574
Manager: RE0 ROOD
4497 LIBERTY ST.
WARSAW, NY 14569
Phone 585-786-8574

Airport Operational Statistics

Aircraft based on the field: 6
Single engine airplanes: 5
Multi engine airplanes: 1
    
Aircraft operations: avg 62/month *
67% local general aviation
27% transient general aviation
7% military
* for 12-month period ending 31 August 2017

Additional Remarks

CLSD DURING SNOW MONTHS (NOV-APR).

Instrument Procedures

There are no published instrument procedures at 5R5.

Some nearby airports with instrument procedures:

KGVQ - Genesee County Airport (19 nm N)
5G0 - Le Roy Airport (19 nm NE)
9G3 - Akron Airport (22 nm NW)
KDSV - Dansville Municipal Airport (23 nm SE)
9G0 - Buffalo Airfield (25 nm W)
 
Loc | Ops | Rwys | IFR | FBO | Links
Com | Nav | Svcs | Stats | Notes


 
Aerial photo
No photo
 
Airport distance calculator
Flying to R & R Aero Airport? Find the distance to fly.

From to 5R5

Sunrise and sunset
Times for 22-Sep-2018
 Local
(UTC-4)
 Zulu
(UTC)
Morning civil twilight06:3310:33
Sunrise07:0111:01
Sunset19:1023:10
Evening civil twilight19:3823:38

Current date and time
Zulu (UTC)  22-Sep-2018 17:59:09
Local (UTC-4)  22-Sep-2018 13:59:09
 
METAR
KGVQ 
19nm N 
221656Z AUTO 03004KT 10SM OVC032 13/07 A3028 RMK AO2 SLP281 T01330067
KDSV 
23nm SE 
221754Z AUTO 01008KT 10SM OVC036 15/08 A3028 RMK AO2 SLP260 T01500083 10156 20128 58001
KBUF 
27nm NW 
221754Z VRB04KT 10SM BKN034 BKN200 14/07 A3027 RMK AO2 SLP252 T01440072 10156 20128 58003 $
KOLE 
30nm S 
221735Z AUTO 07004KT 10SM OVC021 11/08 A3027 RMK AO2
KROC 
32nm NE 
221754Z 03006KT 10SM BKN033 16/08 A3028 RMK AO2 SLP255 T01560078 10156 20139 58005 $
TAF
KBUF 
27nm NW 
221507Z 2215/2312 03008KT P6SM OVC028 FM221800 03006KT P6SM BKN035 FM222000 VRB03KT P6SM SCT050 FM222200 00000KT P6SM SCT250
KROC 
32nm NE 
221507Z 2215/2312 01010KT P6SM FEW026 BKN030 FM221900 03006KT P6SM BKN050 FM222100 02005KT P6SM SCT050 FM230000 00000KT P6SM SCT250
NOTAMs
Click for the latest NOTAMs
NOTAMs are issued by the DoD/FAA and will open in a separate window not controlled by AirNav.

 

 
 

Would you like to see your business listed on this page?

 If your business provides an interesting product or service to pilots, flight crews, aircraft, or users of the R & R Aero Airport, you should consider listing it here.  To start the listing process, click on the button below
 
Add a business
 

Other Pages about R & R Aero Airport

Update a link
 
Copyright © AirNav, LLC. All rights reserved. Privacy Policy  Contact